mexicodesconocido.com.mx alexa rank chart, mexicodesconocido.com.mx alexa rank daily changes

mexicodesconocido.com.mx alexa rank chart, mexicodesconocido.com.mx alexa rank daily changes

mexicodesconocido.com.mx
Actual rank:
46 390

RANK HISTORY

Date Rank Diff
2017/07/25 46 390 -153
2017/07/24 46 543 +1 145
2017/07/23 45 398 +1 068
2017/07/22 44 330 -159
2017/07/21 44 489 +625
2017/07/20 43 864 +129
2017/07/19 43 735 -44
2017/07/18 43 779 +423
2017/07/17 43 356 +795
2017/07/16 42 561 +713
2017/07/15 41 848 +350
2017/07/14 41 498 +95
2017/07/13 41 403 +596
2017/07/12 40 807 -491
2017/07/11 41 298 +746
2017/07/10 40 552 +824
2017/07/09 39 728 +1 014
2017/07/08 38 714 +877
2017/07/07 37 837 +1 371
2017/07/06 36 466 +151
2017/07/05 36 315 +657
2017/07/04 35 658 +627
2017/07/03 35 031 +670
2017/07/02 34 361 +559
2017/07/01 33 802 +493
2017/06/30 33 309 +343
2017/06/29 32 966 -95
2017/06/28 33 061 -68
2017/06/27 33 129 +310
2017/06/26 32 819 +433
2017/06/25 32 386 +458
2017/06/24 31 928 -159
2017/06/23 32 087 -54
2017/06/22 32 141 -133
2017/06/21 32 274 -100
2017/06/20 32 374 +547
2017/06/19 31 827 +376
2017/06/18 31 451 +66
2017/06/17 31 385 +129
2017/06/16 31 256 -444
2017/06/15 31 700 -426
2017/06/14 32 126 +77
2017/06/13 32 049 -23
2017/06/12 32 072 +151
2017/06/11 31 921 -392
2017/06/10 32 313 -236
2017/06/09 32 549 -556
2017/06/08 33 105 -772
2017/06/07 33 877 -1 159
2017/06/06 35 036 -224
2017/06/05 35 260 -149
2017/06/04 35 409 -305
2017/06/03 35 714 -423
2017/06/02 36 137 -610
2017/06/01 36 747 -91
2017/05/31 36 838 -495
2017/05/30 37 333 -75
2017/05/29 37 408 +445
2017/05/28 36 963 +53
2017/05/27 36 910 -92
2017/05/26 37 002

WIDGET FOR YOUR SITE

DOMAINS WITH THE NEAREST RANK

Domain Rank
ascii.cl 46 385
freedvdcover.com 46 386
uacinemas.com.hk 46 387
flooranddecor.com 46 388
crobo.com 46 389
mexicodesconocido.com.mx 46 390
sdu.edu.tr 46 391
cuhk.edu.cn 46 392
signup.free.fr 46 393
clixblue.com 46 394
humankinetics.com 46 395

DOMAINS WITH THE NEAREST RANK BY TLD .com.mx

Domain Rank
autozone.com.mx 45 428
medicamentos.com.mx 45 516
chevrolet.com.mx 45 572
netshoes.com.mx 45 797
cartoonnetwork.com.mx 46 273
mexicodesconocido.com.mx 46 390
doctoralia.com.mx 47 828
elsoldemexico.com.mx 48 037
quadratin.com.mx 48 742
pricetravel.com.mx 49 415
pulsoslp.com.mx 49 465